Location: Cardiff
(53.7833°N, 113.6000°W)
Time: 11:43:56
(UTC+00:00)

TIGRISAT - Visible Passes

Search period start: 08 December 2023 00:00
Search period end: 18 December 2023 00:00
Orbit: 598 x 676 km, 97.7° (Epoch: 07 December)

Date Brightness Start Highest point End Pass type
(mag) Time Alt. Az. Time Alt. Az. Time Alt. Az.
08 Dec ? 01:09:56 10° NNE 01:14:24 75° WNW 01:18:44 10° SSW visible
08 Dec ? 02:47:49 10° NNW 02:50:08 14° NW 02:52:25 10° W visible
08 Dec ? 23:56:28 10° NE 00:00:11 25° E 00:03:48 10° SSE visible
09 Dec ? 01:32:37 10° N 01:36:54 47° WNW 01:41:05 10° SW visible
10 Dec ? 00:18:45 10° NNE 00:22:56 39° E 00:26:59 10° SSE visible
10 Dec ? 01:55:25 10° N 01:59:21 31° WNW 02:03:10 10° SW visible
11 Dec ? 00:41:11 10° NNE 00:45:36 62° ESE 00:49:52 10° S visible
11 Dec ? 02:18:20 10° N 02:21:42 22° WNW 02:25:00 10° WSW visible
12 Dec ? 01:03:45 10° NNE 01:08:11 83° WNW 01:12:29 10° SSW visible
12 Dec ? 02:41:28 10° NNW 02:44:00 15° NW 02:46:28 10° W visible
13 Dec ? 01:26:23 10° N 01:30:41 53° WNW 01:34:52 10° SW visible
13 Dec ? 03:05:26 10° NW 03:06:13 10° NW 03:06:59 10° WNW visible
14 Dec ? 00:12:36 10° NNE 00:16:37 34° E 00:20:33 10° SSE visible
14 Dec ? 01:49:08 10° N 01:53:07 34° WNW 01:57:00 10° SW visible
15 Dec ? 00:34:58 10° NNE 00:39:17 55° E 00:43:29 10° S visible
15 Dec ? 02:12:00 10° N 02:15:28 23° WNW 02:18:53 10° WSW visible
16 Dec ? 00:57:28 10° NNE 01:01:53 87° ESE 01:06:09 10° SSW visible
16 Dec ? 02:35:04 10° NNW 02:37:46 16° NW 02:40:25 10° W visible
17 Dec ? 01:20:05 10° N 01:24:23 59° WNW 01:28:34 10° SSW visible
17 Dec ? 02:58:39 10° NNW 02:59:59 11° NW 03:01:18 10° WNW visible
